Location: Waco, TX
(31.5480°N, 97.1670°W)
Time: 00:32:44
(UTC-06:00)

ISS - Pass Details

Date: 11 December 2017
Orbit: 403 x 407 km, 51.6° (Epoch: 12 December)

Event Time Altitude Azimuth Distance (km) Brightness Sun altitude
Rises 12:25:23 0° 222° (SW) 2,311 0.6 35.4°
Reaches altitude 10° 12:27:27 10° 221° (SW) 1,455 -0.2 35.4°
Maximum altitude 12:30:43 83° 135° (SE) 412 -3.1 35.4°
Drops below altitude 10° 12:34:00 10° 46° (NE) 1,463 -1.3 35.3°
Sets 12:36:05 0° 46° (NE) 2,326 -0.3 35.3°
